Weather in Vasylivka

Ukraine / Zaporizhia Region     47°26′03″N   35°16′34″E
temp.,
°C
wind,
m/s
gust,
m/s
humid.,
%
clouds,
%
prec.,
mm/h
press.,
hPa
HPBL,
m
4 march, thu
thu423:00+1wnw23800 0.0 102629
02:000wsw34790 0.0 102546
05:000sw46860 0.0 102498
08:00+2sw587413 0.0 1022245
11:00+6sw711618 0.0 1020616
14:00+7wsw711624 0.0 1017738
17:00+6sw7126831 0.0 1015389
20:00+4sw7147642 0.0 1014376
5 march, fri
fri523:00+3sw7148431 0.0 1013363
02:00+3sw6129040 0.0 1013279
05:00+3sw5109477 0.0 1013216
08:00+3wsw479589 0.0 1013206
11:00+5sw2490100 0.0 1013279
14:00+6ssw2585100 0.1 1011395
17:00+6sse2285100 0.0 101047
20:00+5sw1189100 0.0 101124
6 march, sat
sat623:00+5w4692100 0.1 1011121
02:00+4nw5895100 1.4 1013256
05:00+1nnw5997100 1.7 1015356
08:00+1nnw71080100 1.8 1018599
11:00+2nnw71055100 0.0 1020751
14:00+2nnw7105799 0.0 10201049
17:00+1nw7105032 0.0 10221245
20:00−1nw6116333 0.0 1025798
7 march, sun
sun723:00−2nw48600 0.0 1027679
02:00−3wnw47650 0.0 1027325
05:00−3w47700 0.0 1027214
08:00−2w58630 0.0 1028494
11:00+1w69490 0.0 10251033
14:00+2w610530 0.0 1022920
17:00+2wsw510570 0.0 1020299
20:00+1sw715630 0.0 1020375
8 march, mon
mon823:000sw815680 0.0 1018421
02:000wsw714751 0.0 1017306
05:00−1wsw6128139 0.0 1016258
08:00+1wsw6117948 0.0 1016379
11:00+3w59630 0.0 1015710
14:00+4w58591 0.0 1014801
17:00+3w476078 0.0 1013198
20:00+2nw347683 0.0 101554